Regional Weather Roundup
Issued by NWS Northern Indiana

Home | Current Version | Previous Version | Graphics & Text | Print | Product List | Glossary On
Versions: 1 2 3 4 5 6 7 8 9 10 11 12 13 14 15 16 17 18 19 20 21 22 23 24 25 26 27 28 29 30 31 32 33 34 35 36 37 38 39 40 41 42 43 44 45 46 47 48 49 50
000
ASUS43 KIWX 120110
RWRIWX

KIWX WEATHER ROUNDUP
NATIONAL WEATHER SERVICE NORTHERN INDIANA
800 PM EST MON DEC 11 2017

NOTE: "FAIR" INDICATES FEW OR NO CLOUDS BELOW 12,000 FEET WITH NO
SIGNIFICANT WEATHER AND/OR OBSTRUCTIONS TO VISIBILITY.

* THESE STATIONS ARE NOT UNDER NWS QUALITY CONTROL. THEY ALSO MAY NOT
  REPORT WEATHER SUCH AS PRECIPITATION OR FOG.

INZ001>027-120200-
NORTHERN INDIANA

CITY           SKY/WX    TMP DP  RH WIND       PRES   REMARKS
GARY*          LGT RAIN  36  32  87 NW9       29.76R
VALPARAISO     LGT SNOW  33  28  81 N6        29.74R WCI  28
MICHIGAN CITY* LGT SNOW  32  28  86 CALM      29.75R
LAPORTE*       LGT SNOW  31  27  84 N10       29.73R WCI  23
KNOX*          CLOUDY    32  28  86 N8        29.70R WCI  25
SOUTH BEND     CLOUDY    31  28  89 N10       29.73R WCI  22
ELKHART*       CLOUDY    32  27  80 N6        29.72R WCI  26
GOSHEN         CLOUDY    29  24  82 NE6       29.69S WCI  23
MONTICELLO*    CLEAR     33  26  76 S3        29.65S
LOGANSPORT*    PTCLDY    32  27  80 SE6       29.66S WCI  26
ROCHESTER*     PTCLDY    32  28  86 NE3       29.67S
WARSAW*        CLOUDY    30  27  86 E5        29.67F WCI  25
AUBURN*        CLOUDY    30  27  86 E3        29.68F
FORT WAYNE     CLOUDY    32  28  85 E7        29.67F WCI  26
HUNTINGTON*    CLOUDY    31  28  91 CALM      29.66F
PERU/GRISSOM   PTCLDY    33  29  87 S7        29.64F WCI  27
MARION*        CLOUDY    35  28  78 SE7       29.66F WCI  29

$$
INZ028>050-120200-
CENTRAL INDIANA

CITY           SKY/WX    TMP DP  RH WIND       PRES   REMARKS
LAFAYETTE      PTCLDY    39  27  62 W10       29.67R
KOKOMO*        CLOUDY    31  28  89 SE6       29.66F WCI  25
MUNCIE*        CLOUDY    38  28  67 VRB5      29.66S
INDIANAPOLIS   MOCLDY    43  25  49 W18G29    29.70R

$$
MIZ043>046-050>051-056>058-064>065-071>073-077>080-120200-
SOUTHWEST LOWER MICHIGAN

CITY           SKY/WX    TMP DP  RH WIND       PRES   REMARKS
BATTLE CREEK   LGT SNOW  29  28  96 CALM      29.72F VSB 1
BENTON HARBOR  SNOW      30  29  96 CALM      29.74S VSB 1/2
COLDWATER*     CLOUDY    31  28  86 N3        29.71S
HILLSDALE*     CLOUDY    30  27  86 CALM      29.69F
HOLLAND        CLOUDY    31  27  85 SW5       29.74F WCI  26
GRAND RAPIDS   CLOUDY    30  28  92 SW5       29.73S WCI  25
KALAMAZOO      SNOW      30  28  92 CALM      29.73S VSB 1/2
STURGIS*       CLOUDY    31  26  84 N8        29.70R WCI  23
THREE RIVERS*  LGT SNOW  32  27  81 CALM      29.73R

$$
OHZ001>008-015>018-024>025-120200-
NORTHWEST OHIO

CITY           SKY/WX    TMP DP  RH WIND       PRES   REMARKS
WAUSEON*         N/A     30  28  93 NE6       29.70F WCI  24
DEFIANCE       CLOUDY    31  24  75 CALM      29.69F
FINDLAY        PTCLDY    33  24  69 SE6       29.69F WCI  28
TOLEDO EXPRESS CLOUDY    32  27  81 NE3       29.71F
TOLEDO METCALF CLOUDY    32  24  72 SE3       29.72F
LIMA           PTCLDY    34  27  75 SE13      29.67F WCI  25

$$
AND FOR LAKE MICHIGAN COASTAL AND OPEN LAKE BUOY OBSERVATIONS

STATION/POSITION TEMP    WIND        PRES    VSBY  WAVE
                 AIR SEA DIR/SP/G                  HT/PER
                 (F)     (DEG/KT/KT) (MB)    (MI)  (FT/S)
CALUMET HARBOR    33     290/  5/  7 1007.2R
MICHIGAN CITY     34     360/  8/  8   N/A
BURNS HARBOR      35      10/  6/  8 1007.8R
SAINT JOSEPH      32      CALM  /  1 1008.1

$$
&&




USA.gov is the U.S. government's official web portal to all federal, state and local government web resources and services.